User: anonymous
Location: Harbor Island
(32.3990°N, 80.4435°W)
Time: 01:06:33
(UTC-04:00)
Language:

Cosmos 1455 - Orbit

View from above orbital plane
View from above orbital plane
View from above satellite
View from above satellite

Ground track
Ground track

The orbit data is extracted from the following two-line orbital elements,

1 14032U 83037A   14237.11761808  .00002883  00000-0  16831-3 0  6103
2 14032 082.5204 018.4136 0019073 235.2374 177.5801 15.11408630705866
Epoch (UTC): 25 August 2014 02:49:22
Eccentricity: 0.0019073
inclination: 82.5204°
perigee height: 519 km
apogee height: 545 km
right ascension of ascending node: 18.4136°
argument of perigee: 235.2374°
revolutions per day: 15.11408630
mean anomaly at epoch: 177.5801°
orbit number at epoch: 70586

The dashed part of the orbit path shows where the satellite is in the earth's shadow,  

DLR